Вернуться в каталог

DUTHSAT-2

АктивенНаукаSSO
NORAD 64530·PAYLOAD·🇬🇷 Greece

Запущен Jun 23, 2025 с Vandenberg Space Force Base

Loading…

Ближайшие Пролёты (ближайшие 24 часа)

TLE

СвежийSource: Space-Track

Эпоха: Sep 14, 2026, 01:37 UTC

1 64530U 25135C   26257.06736386  .00012844  00000-0  46031-3 0  9991
2 64530  97.4701  13.1028 0003768 221.6052 138.4902 15.28864010 68506

Отслеживайте DUTHSAT-2 в реальном времени с AllMySat

Download on the App Store